When you browse on this site, cookies collect data to enhance your experience and personalize the content and advertising you see.
Visit our Privacy Policy to learn more. By continuing to use the site, you agree to this use of cookies and data.
  • In Denmark
  • List of Countries
  • For 7 days
  • Water Temperature
  • Satellite Maps
  • Weather Map
  • Weather Widgets
  • user-avatar
    Login

    Hourly Weather Maturín

    Today, 20 January, Sunday

    Time Temperature Precipitation Wind Pressure Humidity
    00:00 +23°C° 0 mm 2 mps 757 mmHg 92%
    01:00 +23°C° 0 mm 1 mps 757 mmHg 94%
    02:00 +23°C° 0 mm 1 mps 757 mmHg 96%
    03:00 +22°C° 0 mm 1 mps 757 mmHg 97%
    04:00 +22°C° 0 mm 1 mps 757 mmHg 97%
    05:00 +22°C° 0 mm 1 mps 757 mmHg 97%
    06:00 +23°C° 0 mm 1 mps 757 mmHg 93%
    07:00 +24°C° 0 mm 1 mps 758 mmHg 89%
    08:00 +25°C° 0 mm 1 mps 758 mmHg 85%
    09:00 +27°C° 0 mm 2 mps 758 mmHg 75%
    10:00 +30°C° 0 mm 2 mps 758 mmHg 65%
    11:00 +33°C° 0 mm 3 mps 758 mmHg 55%
    12:00 +34°C° 0 mm 3 mps 757 mmHg 53%
    13:00 +34°C° 0 mm 3 mps 757 mmHg 51%
    14:00 +34°C° 0 mm 3 mps 756 mmHg 50%
    15:00 +34°C° 0 mm 3 mps 756 mmHg 51%
    16:00 +34°C° 0 mm 3 mps 755 mmHg 52%
    17:00 +33°C° 0 mm 3 mps 755 mmHg 54%
    18:00 +30°C° 0 mm 3 mps 755 mmHg 60%
    19:00 +29°C° 0 mm 3 mps 756 mmHg 66%
    20:00 +27°C° 0 mm 3 mps 756 mmHg 72%
    21:00 +26°C° 0 mm 2 mps 756 mmHg 78%
    22:00 +25°C° 0 mm 2 mps 757 mmHg 85%
    23:00 +24°C° 0 mm 2 mps 757 mmHg 91%

    Tomorrow, 21 January, Monday

    Time Temperature Precipitation Wind Pressure Humidity
    00:00 +24°C° 0 mm 1 mps 757 mmHg 93%
    01:00 +24°C° 0 mm 1 mps 757 mmHg 95%
    02:00 +23°C° 0 mm 1 mps 757 mmHg 98%
    03:00 +23°C° 0.1 mm 1 mps 757 mmHg 98%
    04:00 +23°C° 0.1 mm 1 mps 757 mmHg 98%
    05:00 +23°C° 0.1 mm 1 mps 757 mmHg 98%
    06:00 +24°C° 0.2 mm 1 mps 757 mmHg 95%
    07:00 +25°C° 0.2 mm 1 mps 758 mmHg 93%
    08:00 +26°C° 0.2 mm 2 mps 758 mmHg 90%
    09:00 +28°C° 0.1 mm 2 mps 759 mmHg 80%
    10:00 +29°C° 0.1 mm 2 mps 759 mmHg 69%
    11:00 +31°C° 0.1 mm 3 mps 759 mmHg 59%
    12:00 +33°C° 0.1 mm 3 mps 758 mmHg 55%
    13:00 +34°C° 0.1 mm 3 mps 757 mmHg 51%
    14:00 +35°C° 0.1 mm 2 mps 756 mmHg 46%
    15:00 +35°C° 0 mm 3 mps 756 mmHg 48%
    16:00 +34°C° 0 mm 3 mps 755 mmHg 49%
    17:00 +34°C° 0 mm 3 mps 755 mmHg 51%
    18:00 +31°C° 0 mm 3 mps 756 mmHg 59%
    19:00 +29°C° 0 mm 3 mps 756 mmHg 68%
    20:00 +27°C° 0 mm 3 mps 757 mmHg 76%
    21:00 +26°C° 0 mm 3 mps 757 mmHg 81%
    22:00 +25°C° 0 mm 2 mps 758 mmHg 86%
    23:00 +24°C° 0 mm 2 mps 758 mmHg 91%

    Day after tomorrow, 22 January, Tuesday

    Time Temperature Precipitation Wind Pressure Humidity
    00:00 +24°C° 0 mm 2 mps 758 mmHg 93%
    01:00 +24°C° 0 mm 1 mps 758 mmHg 96%
    02:00 +23°C° 0 mm 1 mps 757 mmHg 98%
    03:00 +23°C° 0 mm 1 mps 757 mmHg 98%
    04:00 +23°C° 0 mm 1 mps 757 mmHg 98%
    05:00 +23°C° 0 mm 1 mps 757 mmHg 98%
    06:00 +24°C° 0 mm 1 mps 757 mmHg 94%
    07:00 +25°C° 0 mm 2 mps 758 mmHg 90%
    08:00 +26°C° 0 mm 2 mps 758 mmHg 86%
    09:00 +27°C° 0.3 mm 3 mps 759 mmHg 81%
    10:00 +28°C° 0.3 mm 3 mps 759 mmHg 75%
    11:00 +29°C° 0.3 mm 4 mps 759 mmHg 70%
    12:00 +32°C° 0.1 mm 4 mps 758 mmHg 62%
    13:00 +33°C° 0.1 mm 4 mps 757 mmHg 55%
    14:00 +34°C° 0.1 mm 4 mps 756 mmHg 47%
    15:00 +34°C° 0.1 mm 4 mps 756 mmHg 50%
    16:00 +33°C° 0.1 mm 4 mps 756 mmHg 52%
    17:00 +31°C° 0.1 mm 3 mps 755 mmHg 55%
    18:00 +30°C° 0 mm 3 mps 756 mmHg 61%
    19:00 +28°C° 0 mm 3 mps 756 mmHg 67%
    20:00 +27°C° 0 mm 3 mps 757 mmHg 72%
    21:00 +26°C° 0.1 mm 3 mps 757 mmHg 78%
    22:00 +26°C° 0.1 mm 3 mps 758 mmHg 83%
    23:00 +25°C° 0.1 mm 2 mps 758 mmHg 89%

    23 January, Wednesday

    Time Temperature Precipitation Wind Pressure Humidity
    00:00 +24°C° 0.1 mm 2 mps 758 mmHg 91%
    01:00 +24°C° 0.1 mm 2 mps 758 mmHg 94%
    02:00 +23°C° 0.1 mm 1 mps 757 mmHg 96%
    03:00 +23°C° 0 mm 1 mps 757 mmHg 97%
    04:00 +23°C° 0 mm 2 mps 757 mmHg 97%
    05:00 +21°C° 0 mm 2 mps 757 mmHg 97%
    06:00 +23°C° 0 mm 2 mps 758 mmHg 94%
    07:00 +24°C° 0 mm 2 mps 758 mmHg 90%
    08:00 +25°C° 0 mm 2 mps 759 mmHg 87%
    09:00 +27°C° 0 mm 3 mps 759 mmHg 74%
    10:00 +30°C° 0 mm 3 mps 759 mmHg 62%
    11:00 +33°C° 0 mm 4 mps 759 mmHg 50%
    12:00 +33°C° 0 mm 4 mps 758 mmHg 49%
    13:00 +34°C° 0 mm 4 mps 757 mmHg 48%
    14:00 +34°C° 0 mm 4 mps 756 mmHg 47%
    15:00 +33°C° 0 mm 4 mps 756 mmHg 49%
    16:00 +33°C° 0 mm 4 mps 756 mmHg 51%
    17:00 +32°C° 0 mm 4 mps 755 mmHg 53%
    18:00 +30°C° 0 mm 4 mps 756 mmHg 60%
    19:00 +28°C° 0 mm 3 mps 756 mmHg 66%
    20:00 +26°C° 0 mm 3 mps 757 mmHg 73%
    21:00 +25°C° 0 mm 3 mps 757 mmHg 79%
    22:00 +25°C° 0 mm 2 mps 757 mmHg 85%
    23:00 +24°C° 0 mm 2 mps 758 mmHg 91%

    24 January, Thursday

    Time Temperature Precipitation Wind Pressure Humidity
    00:00 +23°C° 0 mm 2 mps 757 mmHg 93%
    01:00 +23°C° 0 mm 1 mps 757 mmHg 95%
    02:00 +23°C° 0 mm 1 mps 757 mmHg 96%
    03:00 +23°C° 0.1 mm 1 mps 757 mmHg 97%
    04:00 +23°C° 0.1 mm 1 mps 757 mmHg 97%
    05:00 +22°C° 0.1 mm 1 mps 757 mmHg 97%
    06:00 +23°C° 0 mm 1 mps 757 mmHg 94%
    07:00 +24°C° 0 mm 1 mps 758 mmHg 91%
    08:00 +25°C° 0 mm 2 mps 758 mmHg 88%
    09:00 +27°C° 0.1 mm 2 mps 758 mmHg 77%
    10:00 +29°C° 0.1 mm 3 mps 758 mmHg 66%
    11:00 +32°C° 0.1 mm 4 mps 758 mmHg 55%
    12:00 +33°C° 0 mm 4 mps 757 mmHg 51%
    13:00 +34°C° 0 mm 4 mps 756 mmHg 47%
    14:00 +35°C° 0 mm 4 mps 756 mmHg 43%
    15:00 +34°C° 0 mm 4 mps 755 mmHg 44%
    16:00 +33°C° 0 mm 4 mps 755 mmHg 45%
    17:00 +33°C° 0 mm 4 mps 755 mmHg 46%
    18:00 +30°C° 0 mm 3 mps 755 mmHg 54%
    19:00 +28°C° 0 mm 3 mps 756 mmHg 61%
    20:00 +27°C° 0 mm 3 mps 756 mmHg 69%
    21:00 +26°C° 0 mm 2 mps 757 mmHg 75%
    22:00 +25°C° 0 mm 2 mps 757 mmHg 82%
    23:00 +24°C° 0 mm 2 mps 757 mmHg 88%

    25 January, Friday

    Time Temperature Precipitation Wind Pressure Humidity
    00:00 +23°C° 0 mm 1 mps 757 mmHg 91%
    01:00 +23°C° 0 mm 1 mps 757 mmHg 94%
    02:00 +22°C° 0 mm 1 mps 757 mmHg 97%
    03:00 +22°C° 0 mm 1 mps 757 mmHg 97%
    04:00 +22°C° 0 mm 1 mps 757 mmHg 97%
    05:00 +22°C° 0 mm 1 mps 757 mmHg 97%
    06:00 +23°C° 0 mm 1 mps 757 mmHg 93%
    07:00 +24°C° 0 mm 1 mps 758 mmHg 89%
    08:00 +25°C° 0 mm 1 mps 758 mmHg 85%
    09:00 +27°C° 0 mm 2 mps 758 mmHg 74%
    10:00 +30°C° 0 mm 2 mps 758 mmHg 62%
    11:00 +33°C° 0 mm 3 mps 758 mmHg 51%
    12:00 +34°C° 0 mm 3 mps 757 mmHg 48%
    13:00 +35°C° 0 mm 3 mps 756 mmHg 44%
    14:00 +36°C° 0 mm 4 mps 755 mmHg 41%
    15:00 +34°C° 0 mm 4 mps 755 mmHg 44%
    16:00 +33°C° 0 mm 4 mps 755 mmHg 47%
    17:00 +32°C° 0 mm 4 mps 754 mmHg 50%
    18:00 +30°C° 0 mm 3 mps 755 mmHg 58%
    19:00 +28°C° 0 mm 3 mps 755 mmHg 66%
    20:00 +26°C° 0 mm 3 mps 756 mmHg 74%
    21:00 +25°C° 0 mm 3 mps 756 mmHg 80%
    22:00 +25°C° 0 mm 2 mps 757 mmHg 87%
    23:00 +24°C° 0 mm 2 mps 757 mmHg 93%
    Show more